This demonstration page uses our WeatherBlox Daily Observations layout. Learn more.

38.80484, -77.04692

Hourly Observations for September 15, 2016

Temp ( °F °C ) Dew Point ( °F °C ) Humidity (%) Winds ( mph kmh ) Pressure ( in mb ) Visibility ( mi km ) Precip ( " mm )
12:52 am 00:52 Clear 77 25 65 18.3 66 66 NE 12 19 30.12 1020 10 16.0934 0 0
1:52 am 01:52 Clear 76 24.4 65 18.3 69 69 NNE 15 24 30.13 1020 10 16.0934 0 0
2:52 am 02:52 Partly Cloudy 75 23.9 65 18.3 71 71 NNE 13 20 30.15 1021 10 16.0934 0 0
3:52 am 03:52 Mostly Clear 74 23.3 62 16.7 67 67 NNE 17 28 30.15 1021 10 16.0934 0 0
4:52 am 04:52 Partly Cloudy 73 22.8 59 15 62 62 NNE 15 24 30.16 1022 10 16.0934 0 0
5:52 am 05:52 Mostly Cloudy 72 22.2 56 13.3 57 57 NNE 13 20 30.18 1022 10 16.0934 0 0
6:52 am 06:52 Mostly Cloudy 71 21.7 55 12.8 57 57 NNE 16 26 30.2 1023 10 16.0934 0 0
7:52 am 07:52 Mostly Cloudy 71 21.7 56 13.3 59 59 NE 14 22 30.22 1023 10 16.0934 0 0
8:52 am 08:52 Mostly Cloudy 71 21.7 56 13.3 59 59 NE 12 19 30.23 1024 10 16.0934 0 0
9:52 am 09:52 Mostly Cloudy 73 22.8 57 13.9 57 57 NE 12 19 30.24 1024 10 16.0934 0 0
10:26 am 10:26 Cloudy 73 23 57 14 57 57 NNE 13 20 30.24 1024 10 16.0934 0 0
10:52 am 10:52 Cloudy 74 23.3 57 13.9 56 56 NE 12 19 30.25 1024 10 16.0934 0 0
11:52 am 11:52 Cloudy 74 23.3 59 15 60 60 ENE 8 13 30.25 1024 10 16.0934 0 0
12:52 pm 12:52 Cloudy 74 23.3 59 15 60 60 E 8 13 30.24 1024 10 16.0934 0 0
1:52 pm 13:52 Cloudy 75 23.9 58 14.4 55 55 ENE 6 9 30.24 1024 10 16.0934 0 0
2:52 pm 14:52 Cloudy 75 23.9 58 14.4 55 55 VRB 3 6 30.21 1023 10 16.0934 0 0
3:52 pm 15:52 Cloudy 76 24.4 59 15 56 56 NE 7 11 30.2 1023 10 16.0934 0 0
4:52 pm 16:52 Cloudy 75 23.9 59 15 58 58 E 6 9 30.19 1023 10 16.0934 0 0
5:52 pm 17:52 Cloudy 74 23.3 59 15 60 60 E 8 13 30.19 1023 10 16.0934 0 0
6:52 pm 18:52 Mostly Cloudy 73 22.8 59 15 62 62 E 8 13 30.2 1023 10 16.0934 0 0
7:52 pm 19:52 Mostly Cloudy 72 22.2 58 14.4 61 61 Calm 30.21 1023 10 16.0934 0 0
8:52 pm 20:52 Mostly Cloudy 73 22.8 59 15 62 62 E 6 9 30.22 1023 10 16.0934 0 0
9:52 pm 21:52 Partly Cloudy 72 22.2 59 15 64 64 E 6 9 30.24 1024 10 16.0934 0 0
10:52 pm 22:52 Mostly Cloudy 70 21.1 61 16.1 73 73 SE 9 15 30.25 1024 10 16.0934 0 0
11:52 pm 23:52 Partly Cloudy 69 20.6 61 16.1 76 76 ESE 12 19 30.26 1025 10 16.0934 0 0

Powered by AerisWeather